Date,TemperatureHighF,TemperatureAvgF,TemperatureLowF,DewpointHighF,DewpointAvgF,DewpointLowF,HumidityHigh,HumidityAvg,HumidityLow,PressureMaxIn,PressureMinIn,WindSpeedMaxMPH,WindSpeedAvgMPH,GustSpeedMaxMPH,PrecipitationSumIn
2013-11-1,67.5,61.6,51.6,66.2,60.6,51.3,99,97,80,29.74,29.44,13,3,13,0.13
2013-11-2,70.0,53.9,44.6,60.3,50.7,44.4,99,90,58,29.70,29.52,7,1,7,0.01
2013-11-3,49.5,42.3,32.4,48.9,37.3,24.1,99,83,61,30.36,29.69,16,4,16,0.00
2013-11-4,46.6,35.2,28.0,28.8,22.6,18.1,89,62,36,30.59,30.35,9,2,9,0.00
2013-11-5,53.1,41.9,31.3,43.9,36.7,26.2,99,82,61,30.59,30.42,9,1,9,0.00
2013-11-6,61.3,50.0,38.3,55.0,47.4,38.1,99,92,71,30.42,29.97,8,1,8,0.00
2013-11-7,63.3,53.1,37.2,63.0,52.5,35.6,99,98,85,29.99,29.64,15,2,15,0.20
2013-11-8,49.3,40.5,33.4,38.3,34.0,30.0,99,79,56,30.09,29.81,13,0,13,0.00
2013-11-9,47.5,40.3,32.2,39.0,33.8,30.4,99,78,57,30.18,29.90,8,1,8,0.00
2013-11-10,61.2,47.0,41.4,45.9,41.0,34.0,99,81,50,29.91,29.69,15,3,15,0.02
2013-11-11,53.6,46.3,37.6,38.8,34.6,31.6,83,64,48,30.09,29.86,19,2,19,0.00
2013-11-12,49.6,34.8,26.8,43.0,30.2,21.4,99,84,63,30.16,29.83,12,2,12,0.19
2013-11-13,36.3,28.3,19.9,23.0,19.8,15.4,98,72,45,30.26,30.14,12,2,12,0.00
2013-11-14,51.8,38.0,24.6,27.3,24.5,20.8,98,62,34,30.15,30.02,10,2,10,0.00
2013-11-15,59.9,41.1,28.6,37.8,30.1,22.8,99,69,33,30.15,30.06,8,1,8,0.00
2013-11-16,63.0,47.6,34.9,48.2,41.6,32.5,99,82,47,30.24,30.13,8,1,8,0.00
2013-11-17,59.2,52.9,40.6,58.8,52.6,40.5,99,99,99,30.20,29.72,7,1,7,0.06
2013-11-18,65.1,57.5,47.8,60.6,48.4,31.5,99,74,50,29.73,29.50,15,3,15,0.17
2013-11-19,48.9,41.1,31.5,33.8,29.2,23.7,76,63,52,30.25,29.65,20,5,20,0.00
2013-11-20,44.1,32.7,24.6,24.1,20.1,13.8,89,62,31,30.53,30.24,12,3,12,0.00
2013-11-21,50.0,36.8,21.6,42.4,31.1,19.9,99,81,46,30.54,30.30,10,1,10,0.00
2013-11-22,53.2,47.2,42.3,52.9,47.0,42.1,99,99,99,30.30,29.79,11,1,11,0.15
2013-11-23,51.1,40.5,28.2,50.5,31.6,14.5,99,72,46,29.93,29.77,17,4,17,0.00
2013-11-24,28.0,23.9,20.1,19.4,7.6,-1.3,72,51,29,30.22,29.84,22,6,22,0.00
2013-11-25,35.6,25.5,14.7,19.6,15.1,9.0,94,66,46,30.35,30.21,8,2,8,0.00
2013-11-26,45.5,35.0,30.9,45.1,26.7,18.1,99,73,51,30.24,29.77,13,2,13,0.28
2013-11-27,61.5,47.2,33.4,61.0,46.9,30.0,99,99,87,29.77,29.21,17,4,17,2.41
2013-11-28,34.5,28.7,22.5,30.7,20.6,14.7,90,72,54,30.37,29.56,16,3,16,0.00
2013-11-29,38.1,28.4,22.1,28.6,23.0,19.8,98,81,59,30.64,30.35,10,1,10,0.00
2013-11-30,33.6,26.0,17.4,29.3,20.0,13.5,98,79,51,30.68,30.30,8,1,8,0.00